Wind_Speed
52 50 47 42 36 33 27 24 25 25 26 27 29 30 33 32 32 35 37 39 37 36 39 41 42 46 48 53 57 59 59 57 57 59 58 57 56 58 50 46 46 47 48 53 60
54 50 45 41 37 34 31 23 26 30 32 33 34 32 33 33 34 36 36 38 39 39 41 45 45 45 50 55 59 60 60 60 61 62 60 59 61 58 52 49 51 56 59 63 64
53 47 45 41 41 39 37 32 32 32 33 34 33 35 35 37 38 37 37 38 39 42 44 44 43 51 52 56 58 60 61 61 62 61 63 62 58 55 54 57 59 65 68 71 65
52 49 48 47 47 45 40 38 38 36 36 37 37 40 38 38 38 37 37 39 39 40 44 46 52 51 54 55 59 60 61 63 62 65 64 59 53 55 61 65 63 63 66 66 66
59 57 55 53 50 47 45 43 42 41 41 40 41 40 38 39 39 37 38 39 40 43 46 49 47 51 52 56 60 60 63 62 64 66 60 52 57 59 66 68 60 60 59 61 59
60 60 58 56 51 49 47 45 46 40 41 41 41 39 36 36 39 40 40 40 43 45 45 47 50 51 55 58 61 60 58 62 65 63 55 56 60 69 70 58 57 56 57 54 58
64 64 60 56 56 51 50 47 44 42 39 36 37 38 34 37 40 40 41 42 44 46 47 48 49 53 54 58 59 55 57 62 61 57 53 55 69 65 57 50 49 52 55 52 46
58 58 60 57 57 52 49 48 43 41 41 38 38 39 36 39 41 43 43 42 41 43 47 48 51 50 54 56 54 52 54 57 56 53 60 66 61 58 49 44 52 52 51 44 44
47 44 45 51 54 52 47 45 43 42 43 42 41 41 41 40 42 43 45 46 45 47 47 48 49 51 54 50 49 43 48 48 55 57 60 61 61 49 44 44 47 49 45 37 33
47 45 44 47 49 50 47 46 45 46 45 46 44 41 41 42 44 43 43 45 45 45 46 49 49 52 47 45 37 35 43 49 57 54 67 57 53 46 39 44 46 43 37 33 26
50 46 43 46 44 46 47 46 45 46 44 44 43 41 40 43 46 49 43 40 40 41 46 48 49 44 43 30 28 37 47 52 53 64 64 60 42 42 39 41 41 41 36 27 26
53 47 42 40 36 36 36 36 35 36 38 41 40 40 44 45 46 38 36 37 40 44 44 43 40 38 23 27 30 40 43 49 59 62 51 45 37 38 42 43 39 38 36 27 25
55 49 47 42 44 39 36 33 33 33 37 39 38 34 34 30 28 31 35 37 38 39 37 36 26 19 25 22 26 33 38 39 42 47 41 33 30 35 39 40 37 32 34 25 27
55 49 47 45 45 43 36 37 33 30 30 28 29 27 27 27 30 34 31 31 31 32 28 14 18 22 18 23 25 24 24 30 29 34 33 30 25 29 34 36 36 28 26 24 22
56 54 50 47 47 42 37 37 34 30 28 28 30 29 29 32 34 30 29 28 28 20 14 19 21 22 22 25 20 19 22 22 27 30 28 26 22 23 31 33 33 26 21 21 22
62 57 54 51 47 42 38 38 35 35 32 29 31 29 30 30 29 25 23 24 19 10 15 16 17 17 24 18 12 14 16 22 29 35 34 27 21 19 25 30 30 24 17 14 20
63 59 58 55 51 45 40 37 37 39 36 33 30 27 27 27 24 24 25 24 7 12 9 14 19 17 25 12 12 17 21 24 29 38 33 32 23 15 20 24 28 27 17 9 3
67 63 59 55 52 47 41 39 39 41 37 35 30 26 25 22 25 27 26 19 11 14 6 11 16 19 25 23 17 21 14 13 22 31 40 45 44 34 20 21 23 25 23 17 3
69 66 62 58 55 51 45 42 44 43 39 36 32 29 27 22 26 23 22 19 19 21 18 19 19 23 27 18 27 24 20 14 13 20 25 37 43 48 44 31 22 22 22 22 12
74 70 66 61 59 57 47 47 46 43 39 36 35 32 27 23 26 26 18 17 20 18 17 20 24 24 25 24 21 25 26 17 25 26 31 30 32 40 46 54 48 37 32 28 25
78 72 69 62 60 52 47 51 48 45 40 39 37 33 29 25 30 30 25 22 23 22 23 24 23 26 28 31 28 23 21 23 25 28 36 37 32 31 37 44 46 44 54 59 44
77 74 69 62 56 49 52 53 51 49 44 42 38 34 31 29 31 36 32 19 20 25 25 25 25 25 26 26 25 28 16 23 28 32 25 30 33 35 36 31 34 43 40 43 53
78 76 71 65 57 50 51 54 52 48 46 44 40 38 32 33 32 38 35 28 19 19 22 22 23 23 26 24 23 31 28 30 29 26 33 32 31 31 34 38 40 38 39 41 45
72 67 61 64 60 53 54 55 51 50 49 47 43 39 36 35 36 37 39 33 30 23 28 22 25 28 23 22 25 30 28 25 29 28 26 29 35 33 30 30 35 41 41 41 43
72 69 66 66 49 61 58 54 52 51 51 49 45 42 38 37 34 37 42 39 32 22 25 28 29 24 26 26 21 19 26 25 25 31 29 30 31 33 37 36 37 39 42 43 46
76 63 71 64 59 56 58 57 52 50 54 52 50 45 40 40 37 39 41 40 33 32 29 26 29 27 24 31 27 21 32 26 28 29 30 31 32 32 35 36 37 39 40 45 43
79 73 72 75 61 58 58 61 56 56 56 56 49 43 44 42 38 42 46 45 41 36 36 33 31 34 41 33 30 22 28 26 31 33 34 31 31 35 32 30 34 38 37 42 45
Wind_Direction
268 274 276 279 281 288 292 281 269 265 272 284 287 295 299 296 289 294 298 298 299 301 307 309 308 309 311 319 321 321 321 317 314 312 308 304 303 306 297 292 290 285 290 283 280
265 271 270 271 275 282 285 275 266 266 270 280 284 289 295 292 289 289 295 297 297 302 305 309 307 306 315 319 320 318 318 315 314 312 308 309 310 306 301 297 295 295 292 286 275
262 263 268 267 274 277 284 278 278 280 280 275 280 286 289 292 288 289 290 294 296 296 304 307 302 311 315 319 317 318 317 313 313 310 309 313 312 313 312 307 306 307 302 298 286
258 261 264 264 271 274 279 273 278 283 281 279 280 289 291 289 286 285 289 292 297 300 303 302 304 309 314 317 317 317 314 312 311 309 313 315 318 316 320 318 312 306 301 297 292
258 262 263 264 269 270 273 274 278 280 280 279 281 284 287 285 285 285 288 291 295 301 305 301 305 310 314 315 316 315 313 311 310 312 314 320 323 324 320 319 313 308 306 301 293
256 261 263 264 264 267 270 273 277 278 279 279 279 279 284 285 284 285 287 291 296 302 301 300 308 310 312 314 314 312 312 309 312 313 321 325 322 322 322 318 317 313 312 307 303
256 258 258 262 264 264 268 269 275 278 276 278 278 277 278 286 287 289 291 293 298 298 300 306 310 311 312 313 311 311 309 308 310 318 327 323 322 321 321 321 322 322 317 318 315
254 253 253 256 260 261 263 266 270 273 272 274 278 276 275 285 291 291 294 294 295 300 310 308 309 309 310 310 310 308 304 305 314 325 328 326 325 322 325 334 332 332 324 325 320
251 251 253 256 256 257 259 262 266 264 274 280 275 279 277 285 289 290 290 292 299 305 307 307 308 307 309 310 308 304 305 313 320 330 330 332 327 328 338 340 343 339 336 334 323
245 251 259 261 258 256 256 258 262 265 270 275 278 279 280 287 288 289 292 298 303 306 308 308 304 306 309 308 304 311 314 316 321 328 332 331 328 331 346 349 348 340 351 347 347
249 254 256 263 259 255 256 260 262 267 269 272 273 278 284 285 285 293 297 299 302 304 304 303 305 307 306 305 317 313 310 315 323 327 333 332 333 338 350 355 354 349 358 355 1
246 252 253 252 251 255 256 258 265 268 271 270 273 274 284 287 292 295 298 300 299 300 300 302 304 308 302 312 312 309 313 317 322 327 331 330 336 346 354 360 2 358 0 10 15
244 246 251 251 252 254 257 263 266 269 270 268 277 282 283 286 295 300 303 297 296 298 301 303 310 308 308 315 308 313 316 324 331 332 338 329 353 351 353 360 10 11 4 20 30
239 239 246 251 251 255 255 260 263 268 264 264 273 280 285 290 296 305 300 296 300 300 304 318 309 317 312 294 307 322 331 329 347 347 346 335 1 355 354 359 10 19 17 27 45
237 239 246 247 254 253 257 260 260 260 255 265 279 281 289 291 296 304 298 297 299 303 297 309 316 315 298 291 302 325 339 0 12 7 5 348 3 5 355 358 14 18 20 28 36
237 239 243 245 249 253 253 258 254 256 255 269 278 280 286 291 300 294 300 295 289 295 296 345 335 309 317 308 343 0 20 11 27 32 22 8 359 13 6 4 15 17 20 32 49
236 238 242 243 248 251 251 252 250 251 253 271 270 277 290 290 292 292 294 284 261 271 297 348 9 349 351 325 355 14 17 17 20 32 30 29 14 18 21 12 11 16 12 25 18
238 238 239 242 247 247 247 248 246 246 255 265 267 271 279 285 285 290 291 259 240 273 275 316 339 337 5 350 336 329 330 353 36 46 40 38 35 36 32 18 15 8 12 5 322
234 238 238 238 243 247 246 248 246 251 257 260 262 267 277 276 280 284 279 247 249 270 293 295 324 321 332 347 343 357 351 352 37 29 29 38 39 39 42 39 16 9 5 2 356
232 235 238 240 243 246 241 244 249 248 251 254 256 260 269 268 275 271 271 256 254 266 283 297 314 328 337 341 341 352 1 30 39 38 46 40 25 43 43 48 47 34 19 3 356
230 233 237 238 238 239 245 246 244 246 247 251 251 257 262 264 266 265 268 269 260 264 275 286 298 312 328 334 333 332 4 10 12 6 32 41 38 29 39 44 43 36 38 39 34
229 231 232 230 234 236 242 244 243 244 245 249 248 253 255 261 254 258 268 253 264 261 266 278 289 303 317 344 336 328 328 333 5 3 7 19 25 25 28 33 34 36 35 32 29
228 228 231 232 230 229 238 243 243 240 243 246 246 250 252 256 256 257 261 260 269 272 269 280 284 292 297 305 339 3 353 346 344 333 9 357 359 15 23 20 22 22 29 21 23
225 225 230 228 232 231 235 238 240 241 244 247 243 245 250 254 254 251 260 254 264 273 263 268 297 276 284 304 297 321 351 1 15 4 343 349 9 14 17 9 15 17 19 16 16
228 223 221 225 224 227 231 237 236 239 242 245 241 240 248 253 255 249 255 252 257 259 266 259 279 287 287 284 301 304 349 355 358 1 6 359 336 355 10 15 18 10 14 13 7
224 221 222 227 236 236 242 234 235 238 238 239 237 238 247 250 255 248 247 252 246 255 265 265 260 290 306 283 306 299 294 349 356 359 352 359 0 333 326 342 355 5 2 6 4
223 227 225 231 235 241 234 229 231 235 239 235 239 241 247 249 256 254 246 249 246 252 253 258 255 279 288 312 285 318 336 336 346 347 356 353 344 349 349 340 352 353 351 355 351
Height
10791 10794 10795 10797 10798 10799 10799 10799 10800 10799 10799 10799 10799 10798 10797 10795 10793 10791 10790 10786 10783 10780 10776 10770 10766 10761 10756 10750 10745 10739 10733 10726 10719 10713 10706 10700 10693 10686 10677 10670 10665 10659 10658 10654 10643
10783 10786 10787 10788 10791 10792 10794 10794 10794 10794 10794 10794 10793 10793 10791 10789 10788 10785 10783 10781 10778 10774 10769 10764 10759 10754 10747 10741 10735 10730 10723 10715 10707 10700 10693 10686 10678 10669 10661 10656 10650 10641 10633 10625 10616
10774 10777 10779 10781 10783 10785 10787 10787 10787 10788 10787 10787 10786 10786 10785 10783 10781 10779 10777 10774 10771 10768 10763 10757 10752 10745 10739 10732 10727 10720 10712 10704 10697 10688 10681 10674 10666 10657 10647 10640 10634 10622 10607 10595 10591
10765 10768 10769 10773 10774 10777 10779 10780 10780 10781 10781 10780 10780 10779 10778 10777 10774 10772 10770 10768 10765 10760 10756 10751 10745 10738 10731 10724 10718 10711 10702 10693 10685 10677 10670 10663 10654 10644 10634 10624 10614 10601 10590 10577 10566
10754 10758 10761 10763 10766 10768 10770 10772 10773 10773 10774 10773 10773 10772 10771 10770 10767 10766 10763 10761 10758 10754 10749 10743 10737 10730 10723 10716 10709 10701 10692 10682 10674 10668 10661 10651 10643 10633 10621 10608 10596 10581 10570 10557 10543
10743 10746 10750 10753 10756 10758 10761 10763 10765 10765 10766 10765 10765 10764 10763 10763 10761 10759 10756 10754 10751 10747 10741 10735 10729 10722 10715 10707 10699 10691 10682 10672 10664 10658 10653 10642 10632 10621 10608 10594 10582 10567 10553 10538 10523
10730 10735 10739 10742 10746 10748 10751 10754 10756 10757 10758 10757 10757 10757 10756 10756 10754 10752 10749 10746 10744 10739 10734 10728 10721 10715 10707 10699 10690 10681 10673 10663 10656 10652 10646 10634 10622 10610 10599 10586 10571 10554 10536 10525 10511
10719 10723 10727 10731 10735 10739 10742 10745 10747 10748 10749 10749 10749 10749 10748 10748 10746 10744 10742 10738 10735 10731 10726 10720 10714 10707 10700 10692 10683 10674 10665 10657 10651 10645 10637 10627 10614 10604 10590 10577 10560 10545 10528 10517 10501
10709 10712 10715 10720 10724 10729 10732 10736 10738 10739 10741 10742 10741 10741 10742 10740 10738 10737 10734 10731 10727 10723 10717 10712 10706 10700 10693 10685 10676 10668 10660 10652 10645 10639 10630 10617 10604 10592 10582 10570 10556 10539 10525 10513 10500
10698 10701 10706 10710 10714 10719 10723 10727 10729 10732 10733 10734 10733 10734 10734 10733 10731 10729 10726 10722 10718 10714 10709 10705 10699 10693 10686 10678 10670 10664 10656 10648 10640 10635 10624 10611 10598 10586 10578 10565 10551 10537 10524 10511 10502
10688 10692 10696 10701 10704 10709 10714 10717 10721 10723 10724 10726 10726 10726 10725 10724 10723 10721 10717 10714 10710 10706 10702 10697 10692 10686 10680 10675 10667 10661 10652 10644 10634 10628 10617 10605 10592 10580 10572 10562 10549 10536 10524 10515 10504
10677 10682 10687 10693 10697 10701 10704 10708 10711 10713 10715 10717 10718 10718 10717 10716 10714 10712 10710 10706 10703 10699 10695 10690 10685 10681 10676 10671 10664 10657 10649 10640 10628 10621 10612 10600 10589 10578 10567 10559 10549 10539 10528 10519 10511
10666 10672 10678 10684 10689 10692 10697 10700 10702 10705 10707 10709 10710 10710 10709 10709 10707 10705 10702 10699 10695 10692 10689 10684 10681 10677 10674 10668 10661 10653 10644 10635 10624 10616 10608 10598 10586 10577 10569 10561 10551 10543 10535 10527 10521
10654 10661 10668 10673 10678 10683 10688 10691 10694 10697 10699 10701 10702 10703 10702 10701 10700 10698 10695 10692 10689 10686 10683 10681 10678 10674 10670 10664 10658 10650 10642 10633 10622 10613 10605 10596 10587 10580 10572 10563 10555 10548 10542 10537 10531
10642 10649 10656 10662 10668 10674 10679 10683 10686 10689 10691 10694 10694 10695 10695 10694 10693 10691 10688 10686 10684 10681 10680 10678 10674 10670 10666 10661 10655 10648 10641 10633 10622 10613 10605 10596 10588 10580 10572 10565 10557 10552 10548 10546 10542
10628 10637 10644 10651 10659 10665 10669 10674 10678 10681 10682 10685 10686 10688 10688 10687 10686 10685 10683 10681 10679 10678 10676 10673 10670 10667 10664 10659 10653 10647 10640 10632 10622 10613 10603 10596 10589 10581 10574 10566 10561 10555 10553 10552 10550
10615 10624 10631 10640 10649 10655 10660 10664 10670 10671 10674 10677 10679 10679 10680 10680 10680 10679 10678 10676 10676 10674 10672 10671 10669 10667 10663 10659 10653 10645 10638 10631 10625 10616 10607 10599 10591 10582 10575 10570 10564 10558 10555 10554 10554
10602 10610 10619 10628 10638 10644 10650 10657 10660 10662 10665 10668 10671 10672 10673 10674 10674 10674 10672 10672 10671 10670 10669 10667 10666 10664 10661 10657 10653 10646 10639 10631 10626 10618 10611 10603 10594 10587 10577 10572 10567 10562 10558 10556 10556
10587 10597 10606 10616 10625 10633 10641 10647 10648 10652 10657 10660 10662 10665 10666 10667 10667 10667 10667 10666 10666 10666 10665 10664 10663 10660 10658 10655 10652 10646 10639 10633 10625 10617 10611 10605 10598 10591 10583 10576 10571 10567 10562 10559 10559
10572 10581 10591 10605 10615 10622 10631 10633 10638 10643 10648 10651 10653 10656 10658 10660 10660 10661 10661 10662 10661 10661 10660 10659 10657 10656 10654 10652 10649 10645 10639 10632 10627 10620 10612 10605 10600 10595 10590 10583 10577 10572 10568 10564 10561
10556 10567 10580 10593 10602 10612 10620 10620 10625 10632 10637 10641 10644 10647 10650 10652 10653 10654 10655 10656 10656 10655 10655 10654 10654 10653 10650 10648 10645 10642 10639 10634 10628 10622 10614 10608 10601 10595 10591 10587 10581 10577 10573 10569 10564
10541 10555 10567 10578 10591 10602 10604 10607 10614 10621 10626 10630 10635 10638 10642 10644 10646 10646 10649 10649 10650 10648 10649 10649 10649 10649 10647 10644 10641 10637 10634 10630 10627 10623 10614 10607 10602 10597 10591 10586 10582 10579 10576 10573 10569
10524 10537 10552 10566 10581 10588 10589 10594 10603 10610 10615 10620 10624 10628 10632 10634 10637 10639 10640 10641 10642 10642 10642 10644 10644 10644 10642 10642 10641 10637 10630 10624 10621 10619 10616 10608 10600 10597 10592 10587 10583 10578 10574 10571 10568
10508 10525 10543 10556 10569 10572 10575 10581 10591 10598 10604 10608 10613 10617 10621 10625 10627 10630 10632 10633 10634 10635 10636 10637 10637 10637 10637 10636 10635 10635 10629 10623 10619 10614 10610 10608 10601 10595 10590 10586 10582 10577 10573 10569 10566
10493 10516 10532 10547 10553 10550 10557 10571 10579 10586 10592 10597 10602 10605 10610 10614 10616 10619 10621 10623 10625 10626 10627 10629 10631 10630 10630 10630 10628 10629 10624 10620 10615 10611 10606 10602 10598 10595 10589 10584 10580 10575 10571 10567 10564
10483 10505 10518 10527 10530 10539 10550 10562 10566 10572 10578 10583 10587 10594 10600 10602 10605 10608 10611 10614 10616 10618 10620 10620 10622 10624 10625 10624 10623 10620 10619 10616 10611 10606 10602 10597 10593 10589 10587 10583 10576 10573 10568 10563 10559
10471 10488 10501 10510 10519 10531 10544 10544 10549 10557 10565 10569 10576 10585 10587 10590 10594 10597 10600 10604 10606 10609 10611 10611 10612 10614 10617 10618 10617 10613 10610 10609 10607 10602 10597 10592 10586 10583 10579 10574 10570 10566 10562 10558 10554